Time,TemperatureF,DewpointF,PressureIn,WindDirection,WindDirectionDegrees,WindSpeedMPH,WindSpeedGustMPH,Humidity,HourlyPrecipIn,Conditions,Clouds,dailyrainin,SoftwareType,DateUTC
2013-06-01 00:10:00,66.2,65.9,29.96,SSE,157,0.0,-999.0,99,-99.99,,,0.00,Acu-Link.com,2013-06-01 04:10:00,
2013-06-01 00:25:00,64.4,64.1,29.96,ENE,67,0.0,-999.0,99,-99.99,,,0.00,Acu-Link.com,2013-06-01 04:25:00,
2013-06-01 00:40:00,64.4,64.1,29.96,SSE,157,0.0,-999.0,99,-99.99,,,0.00,Acu-Link.com,2013-06-01 04:40:00,
2013-06-01 00:55:00,64.4,64.1,29.96,SE,135,0.0,-999.0,99,-99.99,,,0.00,Acu-Link.com,2013-06-01 04:55:00,
2013-06-01 01:10:00,64.4,64.1,29.96,SE,135,0.0,-999.0,99,-99.99,,,0.00,Acu-Link.com,2013-06-01 05:10:00,
2013-06-01 01:25:00,64.4,64.1,29.96,East,90,0.0,-999.0,99,-99.99,,,0.00,Acu-Link.com,2013-06-01 05:25:00,
2013-06-01 01:40:00,64.4,64.1,29.95,SE,135,0.0,-999.0,99,-99.99,,,0.00,Acu-Link.com,2013-06-01 05:40:00,
2013-06-01 01:55:00,64.4,64.1,29.95,SSE,157,0.0,-999.0,99,-99.99,,,0.00,Acu-Link.com,2013-06-01 05:55:00,
2013-06-01 02:10:00,64.4,64.1,71.65,SE,135,1.6,-999.0,99,-99.99,,,0.00,Acu-Link.com,2013-06-01 06:10:00,
2013-06-01 02:26:00,64.4,64.1,29.92,SSE,157,0.0,-999.0,99,-99.99,,,0.00,Acu-Link.com,2013-06-01 06:26:00,
2013-06-01 02:41:00,64.4,64.1,29.91,ESE,112,0.0,-999.0,99,-99.99,,,0.00,Acu-Link.com,2013-06-01 06:41:00,
2013-06-01 02:56:00,64.4,64.1,29.91,SW,225,0.0,-999.0,99,-99.99,,,0.00,Acu-Link.com,2013-06-01 06:56:00,
2013-06-01 03:11:00,64.4,64.1,29.90,SE,135,0.0,-999.0,99,-99.99,,,0.00,Acu-Link.com,2013-06-01 07:11:00,
2013-06-01 03:26:00,64.4,64.1,29.90,SSE,157,3.6,-999.0,99,-99.99,,,0.00,Acu-Link.com,2013-06-01 07:26:00,
2013-06-01 03:41:00,64.4,64.1,29.90,NE,45,5.1,-999.0,99,-99.99,,,0.00,Acu-Link.com,2013-06-01 07:41:00,
2013-06-01 03:56:00,64.4,64.1,29.90,WNW,292,2.0,-999.0,99,-99.99,,,0.00,Acu-Link.com,2013-06-01 07:56:00,
2013-06-01 04:13:00,64.4,64.1,29.90,ESE,112,4.0,-999.0,99,-99.99,,,0.00,Acu-Link.com,2013-06-01 08:13:00,
2013-06-01 04:28:00,64.4,64.1,29.90,SSE,157,2.7,-999.0,99,-99.99,,,0.00,Acu-Link.com,2013-06-01 08:28:00,
2013-06-01 04:44:00,64.4,64.1,29.90,SSE,157,1.6,-999.0,99,-99.99,,,0.00,Acu-Link.com,2013-06-01 08:44:00,
2013-06-01 04:59:00,64.4,64.1,29.90,SSE,157,1.6,-999.0,99,-99.99,,,0.00,Acu-Link.com,2013-06-01 08:59:00,
2013-06-01 05:14:00,64.4,64.1,29.90,ESE,112,0.0,-999.0,99,-99.99,,,0.00,Acu-Link.com,2013-06-01 09:14:00,
2013-06-01 05:29:00,64.4,64.1,29.90,NNE,22,0.0,-999.0,99,-99.99,,,0.00,Acu-Link.com,2013-06-01 09:29:00,
2013-06-01 05:44:00,64.4,64.1,29.90,SE,135,1.6,-999.0,99,-99.99,,,0.00,Acu-Link.com,2013-06-01 09:44:00,
2013-06-01 06:00:00,62.6,62.3,29.90,ESE,112,1.1,-999.0,99,-99.99,,,0.00,Acu-Link.com,2013-06-01 10:00:00,
2013-06-01 06:15:00,62.6,62.3,29.90,East,90,0.0,-999.0,99,-99.99,,,0.00,Acu-Link.com,2013-06-01 10:15:00,
2013-06-01 06:30:00,64.4,64.1,29.90,ESE,112,1.6,-999.0,99,-99.99,,,0.00,Acu-Link.com,2013-06-01 10:30:00,
2013-06-01 06:45:00,64.4,64.1,29.90,SSW,202,2.7,-999.0,99,-99.99,,,0.00,Acu-Link.com,2013-06-01 10:45:00,
2013-06-01 07:00:00,64.4,64.1,29.90,ESE,112,2.0,-999.0,99,-99.99,,,0.00,Acu-Link.com,2013-06-01 11:00:00,
2013-06-01 07:16:00,64.4,64.1,29.90,ESE,112,2.7,-999.0,99,-99.99,,,0.00,Acu-Link.com,2013-06-01 11:16:00,
2013-06-01 07:31:00,66.2,65.9,29.89,West,270,2.0,-999.0,99,-99.99,,,0.00,Acu-Link.com,2013-06-01 11:31:00,
2013-06-01 07:46:00,68.0,67.4,29.89,North,0,1.1,-999.0,98,-99.99,,,0.00,Acu-Link.com,2013-06-01 11:46:00,
2013-06-01 08:01:00,68.0,66.5,29.90,WNW,292,1.6,-999.0,95,-99.99,,,0.00,Acu-Link.com,2013-06-01 12:01:00,
2013-06-01 08:16:00,69.8,67.7,29.89,SSW,202,1.6,-999.0,93,-99.99,,,0.00,Acu-Link.com,2013-06-01 12:16:00,
2013-06-01 08:31:00,71.6,68.5,29.89,SSE,157,0.0,-999.0,90,-99.99,,,0.00,Acu-Link.com,2013-06-01 12:31:00,
2013-06-01 08:47:00,71.6,67.2,29.89,SE,135,2.7,-999.0,86,-99.99,,,0.00,Acu-Link.com,2013-06-01 12:47:00,
2013-06-01 09:02:00,75.2,68.6,29.87,ENE,67,2.7,-999.0,80,-99.99,,,0.00,Acu-Link.com,2013-06-01 13:02:00,
2013-06-01 09:17:00,77.0,68.8,29.88,SSE,157,2.0,-999.0,76,-99.99,,,0.00,Acu-Link.com,2013-06-01 13:17:00,
2013-06-01 09:32:00,77.0,68.1,29.88,SSW,202,4.7,-999.0,74,-99.99,,,0.00,Acu-Link.com,2013-06-01 13:32:00,
2013-06-01 09:51:00,77.0,68.5,29.87,WSW,247,0.0,-999.0,75,-99.99,,,0.00,Acu-Link.com,2013-06-01 13:51:00,
2013-06-01 10:06:00,75.2,67.9,29.87,ESE,112,2.7,-999.0,78,-99.99,,,0.00,Acu-Link.com,2013-06-01 14:06:00,
2013-06-01 10:21:00,77.0,70.0,29.86,NE,45,1.1,-999.0,79,-99.99,,,0.00,Acu-Link.com,2013-06-01 14:21:00,
2013-06-01 10:37:00,77.0,69.2,29.86,ESE,112,3.6,-999.0,77,-99.99,,,0.00,Acu-Link.com,2013-06-01 14:37:00,
2013-06-01 13:52:00,82.4,72.4,29.84,SSW,202,3.1,-999.0,72,-99.99,,,0.00,Acu-Link.com,2013-06-01 17:52:00,
2013-06-01 14:07:00,82.4,72.0,29.84,NNE,22,4.7,-999.0,71,-99.99,,,0.00,Acu-Link.com,2013-06-01 18:07:00,
2013-06-01 14:22:00,82.4,72.9,29.84,South,180,4.0,-999.0,73,-99.99,,,0.00,Acu-Link.com,2013-06-01 18:22:00,
2013-06-01 14:37:00,82.4,71.6,29.84,West,270,2.7,-999.0,70,-99.99,,,0.00,Acu-Link.com,2013-06-01 18:37:00,
2013-06-01 14:52:00,80.6,71.1,29.84,WSW,247,2.7,-999.0,73,-99.99,,,0.00,Acu-Link.com,2013-06-01 18:52:00,
2013-06-01 15:08:00,80.6,70.7,29.84,WSW,247,2.0,-999.0,72,-99.99,,,0.00,Acu-Link.com,2013-06-01 19:08:00,
2013-06-01 15:23:00,80.6,71.1,29.83,SE,135,2.7,-999.0,73,-99.99,,,0.00,Acu-Link.com,2013-06-01 19:23:00,
2013-06-01 15:38:00,82.4,72.0,29.84,WNW,292,2.0,-999.0,71,-99.99,,,0.00,Acu-Link.com,2013-06-01 19:38:00,
2013-06-01 15:53:00,80.6,69.9,29.84,NNW,337,1.6,-999.0,70,-99.99,,,0.00,Acu-Link.com,2013-06-01 19:53:00,
2013-06-01 16:08:00,80.6,70.7,29.84,WNW,292,4.7,-999.0,72,-99.99,,,0.00,Acu-Link.com,2013-06-01 20:08:00,
2013-06-01 16:23:00,82.4,72.9,29.83,ESE,112,0.0,-999.0,73,-99.99,,,0.00,Acu-Link.com,2013-06-01 20:23:00,
2013-06-01 16:38:00,82.4,71.6,29.83,ESE,112,2.7,-999.0,70,-99.99,,,0.00,Acu-Link.com,2013-06-01 20:38:00,
2013-06-01 16:54:00,84.2,72.9,29.82,ESE,112,2.7,-999.0,69,-99.99,,,0.00,Acu-Link.com,2013-06-01 20:54:00,
2013-06-01 17:09:00,82.4,72.4,29.82,SSW,202,7.8,-999.0,72,-99.99,,,0.00,Acu-Link.com,2013-06-01 21:09:00,
2013-06-01 17:24:00,82.4,72.4,29.82,South,180,2.7,-999.0,72,-99.99,,,0.00,Acu-Link.com,2013-06-01 21:24:00,
2013-06-01 17:39:00,82.4,70.8,29.81,South,180,4.7,-999.0,68,-99.99,,,0.00,Acu-Link.com,2013-06-01 21:39:00,
2013-06-01 17:54:00,82.4,70.8,29.81,NNE,22,7.8,-999.0,68,-99.99,,,0.00,Acu-Link.com,2013-06-01 21:54:00,
2013-06-01 18:10:00,80.6,70.3,29.80,SW,225,2.0,-999.0,71,-99.99,,,0.00,Acu-Link.com,2013-06-01 22:10:00,
2013-06-01 18:25:00,80.6,70.7,29.80,SSW,202,2.7,-999.0,72,-99.99,,,0.00,Acu-Link.com,2013-06-01 22:25:00,
2013-06-01 18:40:00,80.6,70.7,29.79,WSW,247,4.0,-999.0,72,-99.99,,,0.00,Acu-Link.com,2013-06-01 22:40:00,
2013-06-01 18:56:00,80.6,69.9,29.79,East,90,2.0,-999.0,70,-99.99,,,0.00,Acu-Link.com,2013-06-01 22:56:00,
2013-06-01 19:11:00,80.6,70.3,29.79,NNW,337,2.0,-999.0,71,-99.99,,,0.00,Acu-Link.com,2013-06-01 23:11:00,
2013-06-01 19:26:00,78.8,69.4,29.78,ESE,112,0.0,-999.0,73,-99.99,,,0.00,Acu-Link.com,2013-06-01 23:26:00,
2013-06-01 19:42:00,78.8,70.6,29.78,NW,315,0.0,-999.0,76,-99.99,,,0.00,Acu-Link.com,2013-06-01 23:42:00,
2013-06-01 19:57:00,78.8,69.8,29.78,SW,225,1.6,-999.0,74,-99.99,,,0.00,Acu-Link.com,2013-06-01 23:57:00,
2013-06-01 20:12:00,78.8,69.0,29.79,WNW,292,2.0,-999.0,72,-99.99,,,0.00,Acu-Link.com,2013-06-02 00:12:00,
2013-06-01 20:27:00,78.8,69.0,29.78,East,90,1.6,-999.0,72,-99.99,,,0.00,Acu-Link.com,2013-06-02 00:27:00,
2013-06-01 20:42:00,77.0,67.7,29.78,WNW,292,3.1,-999.0,73,-99.99,,,0.00,Acu-Link.com,2013-06-02 00:42:00,
2013-06-01 20:57:00,75.2,67.5,29.78,North,0,0.0,-999.0,77,-99.99,,,0.00,Acu-Link.com,2013-06-02 00:57:00,
2013-06-01 21:13:00,73.4,66.8,29.78,NNE,22,0.0,-999.0,80,-99.99,,,0.00,Acu-Link.com,2013-06-02 01:13:00,
2013-06-01 21:28:00,73.4,66.8,29.78,East,90,0.0,-999.0,80,-99.99,,,0.00,Acu-Link.com,2013-06-02 01:28:00,
2013-06-01 21:43:00,73.4,66.8,29.78,ENE,67,0.0,-999.0,80,-99.99,,,0.00,Acu-Link.com,2013-06-02 01:43:00,
2013-06-01 21:58:00,71.6,66.8,29.78,East,90,0.0,-999.0,85,-99.99,,,0.01,Acu-Link.com,2013-06-02 01:58:00,
2013-06-01 22:14:00,71.6,68.2,29.77,SE,135,0.0,-999.0,89,-99.99,,,0.04,Acu-Link.com,2013-06-02 02:14:00,
2013-06-01 22:29:00,69.8,67.7,29.77,SSE,157,2.0,-999.0,93,-99.99,,,0.18,Acu-Link.com,2013-06-02 02:29:00,
2013-06-01 22:44:00,69.8,68.0,29.76,SE,135,0.0,-999.0,94,-99.99,,,0.18,Acu-Link.com,2013-06-02 02:44:00,
2013-06-01 22:59:00,69.8,68.0,29.76,NE,45,0.0,-999.0,94,-99.99,,,0.18,Acu-Link.com,2013-06-02 02:59:00,
2013-06-01 23:14:00,69.8,68.3,29.75,NE,45,0.0,-999.0,95,-99.99,,,0.18,Acu-Link.com,2013-06-02 03:14:00,
2013-06-01 23:29:00,69.8,68.9,29.77,West,270,2.7,-999.0,97,-99.99,,,0.20,Acu-Link.com,2013-06-02 03:29:00,
2013-06-01 23:45:00,68.0,66.5,29.78,NNW,337,4.0,-999.0,95,-99.99,,,0.27,Acu-Link.com,2013-06-02 03:45:00,